TIME,�g��[���C[MJ/h],����[MJ/h],�Ɩ�[MJ/h],�~�[[MJ/h],�①��[MJ/h],��y���[MJ/h],�Ǝ��q��[MJ/h],���̑�[MJ/h],�����G�l���M�[[MJ/h]
2003/2/1 0:00,10.5985,0,0,0.1391,0.3534,0.3707,0.4805,0.5747,0
2003/2/1 0:15,11.3158,0,0,0.15,0.3848,0.049,0.1639,0.2765,0
2003/2/1 0:30,11.3573,0,0,0.1513,0.3887,0.0425,0.1585,0.2555,0
2003/2/1 0:45,11.4526,0,0,0.1502,0.3923,0.0429,0.2102,0.2686,0
2003/2/1 1:00,11.5546,0,0,0.1515,0.3946,0.0431,0.1388,0.3866,0
2003/2/1 1:15,11.29,0,0,0.1492,0.3915,0.0423,0.1853,0.2913,0
2003/2/1 1:30,11.3039,0,0,0.1535,0.392,0.0423,0.1444,0.2523,0
2003/2/1 1:45,11.3639,0,0,0.1488,0.3933,0.0426,0.1943,0.2575,0
2003/2/1 2:00,11.3268,0,0,0.1513,0.3924,0.0425,0.147,0.2494,0
2003/2/1 2:15,11.4247,0,0,0.1528,0.3941,0.0425,0.1974,0.2544,0
2003/2/1 2:30,11.4281,0,0,0.1509,0.3937,0.0428,0.1463,0.2426,0
2003/2/1 2:45,11.4121,0,0,0.1512,0.3933,0.0426,0.1896,0.2566,0
2003/2/1 3:00,11.3665,0,0,0.1518,0.392,0.0425,0.1472,0.2487,0
2003/2/1 3:15,11.3556,0,0,0.1526,0.3915,0.0425,0.1967,0.249,0
2003/2/1 3:30,11.3456,0,0,0.1511,0.3912,0.0425,0.1463,0.2733,0
2003/2/1 3:45,11.3998,0,0,0.1528,0.3924,0.0425,0.1945,0.2436,0
2003/2/1 4:00,11.4286,0,0,0.1486,0.3924,0.0428,0.148,0.2655,0
2003/2/1 4:15,11.4376,0,0,0.1545,0.3924,0.0428,0.1927,0.2618,0
2003/2/1 4:30,11.4504,0,0,0.1522,0.3921,0.0428,0.1339,0.2762,0
2003/2/1 4:45,11.4343,0,0,0.1526,0.3923,0.0426,0.1364,0.2533,0
2003/2/1 5:00,11.3695,0,0,0.1499,0.3908,0.0426,0.0887,0.2575,0
2003/2/1 5:15,11.3139,0,0,0.149,0.39,0.0425,0.1341,0.25,0
2003/2/1 5:30,11.1983,0,0,0.1515,0.3871,0.0418,0.0852,0.2352,0
2003/2/1 5:45,11.3666,0,0,0.1475,0.1068,0.0426,0.1367,0.23,0
2003/2/1 6:00,11.5348,0,0,0.1536,0.3933,0.0433,0.0899,0.2932,0
2003/2/1 6:15,5.6969,0,0,0.1486,0.382,0.0431,0.1057,0.293,0
2003/2/1 6:30,1.8096,0,0,0.1524,0.3833,0.0431,0.1536,0.2238,0
2003/2/1 6:45,11.3459,0,0,0.1498,0.3823,0.0428,0.1028,0.2449,0
2003/2/1 7:00,11.2527,0,0,0.1505,0.3817,0.0595,0.338,1.1061,0
2003/2/1 7:15,9.2506,0,0,0.1528,0.2621,0.0423,1.0587,3.3758,0
2003/2/1 7:30,1.4545,0,0,0.1483,0.2173,0.0425,0.6864,3.4075,0
2003/2/1 7:45,5.3814,0,0,0.1492,0.3779,0.0431,0.6958,3.438,0
2003/2/1 8:00,4.4345,0,0,0.1502,0.381,0.1259,0.574,3.7116,0
2003/2/1 8:15,0,0,0,0.1519,0.3817,0.3826,0.3925,3.9678,0
2003/2/1 8:30,0,0,0,0.1482,0.384,0.415,0.4396,4.0933,0
2003/2/1 8:45,0,0,0,0.1503,0.3842,0.4552,0.1044,4.0388,0
2003/2/1 9:00,0,0,0,0.6719,0.3839,0.4791,0.1564,3.9972,0
2003/2/1 9:15,0,0,0,3.5902,0.3858,0.4887,0.1038,4.0055,0
2003/2/1 9:30,0,0,0,0.144,0.3882,0.0572,0.1583,3.9783,0
2003/2/1 9:45,0,0,0,0.1405,0.3904,0.0429,0.1014,4.4626,0
2003/2/1 10:00,0,0,0,0.1488,0.3925,0.0435,0.1565,5.4278,0
2003/2/1 10:15,0,0,0,0.1467,0.3989,0.0431,0.1024,0.5273,0
2003/2/1 10:30,0,0,0,0.1431,0.146,0.0436,0.1524,0.753,0
2003/2/1 10:45,0,0,0,0.149,0.3529,0.0426,0.0991,0.734,0
2003/2/1 11:00,0,0,0,3.9188,0.3901,0.0423,0.1541,0.4709,0
2003/2/1 11:15,0,0,0,0.1437,0.3928,0.0426,0.0989,0.4694,0
2003/2/1 11:30,0,0,0,0.1477,0.2511,0.0426,0.1761,0.4836,0
2003/2/1 11:45,0,0,0,0.1407,0.2575,0.4188,0.1552,0.4376,0
2003/2/1 12:00,0,0,0,0.138,0.3931,0.4634,0.0989,0.4072,0
2003/2/1 12:15,0,0,0,0.5083,0.3956,0.4598,0.1477,0.4609,0
2003/2/1 12:30,0,0,0,0.1372,0.2704,0.452,0.0995,0.3623,0
2003/2/1 12:45,0,0,0,0.1391,0.2451,0.4548,0.0991,0.2763,0
2003/2/1 13:00,0,0,0,0.1407,0.3933,0.4703,0.1522,0.2789,0
2003/2/1 13:15,0,0,0,0.1401,0.395,0.4707,0.0975,0.2746,0
2003/2/1 13:30,0,0,0,0.1392,0.2759,0.463,0.1469,0.286,0
2003/2/1 13:45,0,0,0,0.1398,0.3387,0.3806,0.0965,0.2811,0
2003/2/1 14:00,0,0,0,0.1411,0.3961,0.2316,0.148,0.294,0
2003/2/1 14:15,0,0,0,0.1382,0.3986,0.2235,0.1063,0.2938,0
2003/2/1 14:30,0,0,0,0.14,0.4012,0.2216,0.1477,0.3102,0
2003/2/1 14:45,0,0,0,0.1368,0.4029,0.1639,0.0945,0.3515,0
2003/2/1 15:00,0,0,0,0.1401,0.4042,0.0876,0.1434,0.536,0
2003/2/1 15:15,0,0,0,0.1397,0.4038,0.0871,0.3125,0.6026,0
2003/2/1 15:30,0,0,0,0.1423,0.4031,0.0874,0.6057,0.6542,0
2003/2/1 15:45,0,0,0,0.1381,0.5845,0.087,0.6045,0.6251,0
2003/2/1 16:00,0,0,0,0.1381,0.4346,0.0868,0.5731,0.6139,0
2003/2/1 16:15,0,0,0,0.142,0.3838,0.0865,0.5913,0.6179,0
2003/2/1 16:30,0,0,0,0.1378,0.3937,0.0874,0.4751,3.3764,0
2003/2/1 16:45,0,0,0,0.1372,0.3992,0.0871,0.4539,4.6659,0
2003/2/1 17:00,0,0,0,0.1381,0.3997,0.2339,0.4118,4.2139,0
2003/2/1 17:15,0,0,0,0.1395,0.3995,0.4103,0.4621,3.8792,0
2003/2/1 17:30,0,0,0,0.141,0.4077,0.4055,0.4512,2.0601,0
2003/2/1 17:45,0,0,0,0.1446,0.4065,0.4072,0.5093,1.3202,0
2003/2/1 18:00,0,0,0,1.1133,0.4038,0.4136,0.4595,1.477,0
2003/2/1 18:15,0,0,0,1.19,0.4046,0.3856,0.4617,1.3748,0
2003/2/1 18:30,0,0,0,0.6998,0.4059,0.4156,0.5414,1.183,0
2003/2/1 18:45,0,0,0,2.3782,0.4045,0.4257,0.4951,1.3467,0
2003/2/1 19:00,0,0,0,0.5712,0.4025,0.3177,0.5568,1.3046,0
2003/2/1 19:15,0,0,0,0.1659,0.4028,0.2458,0.4817,3.739,0
2003/2/1 19:30,0,0,0,0.1627,0.4026,0.2939,0.5233,4.2546,0
2003/2/1 19:45,0,0,0,0.1627,0.4032,0.5004,0.466,4.2555,0
2003/2/1 20:00,0,0,0,0.1968,0.4054,0.3584,0.5345,4.5762,0
2003/2/1 20:15,0,0,0,0.2039,0.4061,0.1375,0.4827,1.8824,0
2003/2/1 20:30,0,0,0,0.214,0.4067,0.1439,0.4817,1.7101,0
2003/2/1 20:45,0,0,0,0.2112,0.4062,0.1413,0.6002,2.6554,0
2003/2/1 21:00,0,0,0,0.2125,0.4048,0.1413,0.5787,4.9501,0
2003/2/1 21:15,0,0,0,0.2097,0.4042,0.1397,0.5449,4.7984,0
2003/2/1 21:30,0,0,0,0.215,0.4026,0.1319,0.6183,3.7784,0
2003/2/1 21:45,0,0,0,0.212,0.4038,0.1313,0.562,2.9863,0
2003/2/1 22:00,6.7719,0,0,0.2125,0.4038,0.1308,0.6132,3.1255,0
2003/2/1 22:15,11.2638,0,0,0.6823,0.4026,0.1316,0.4224,3.1206,0
2003/2/1 22:30,11.2327,0,0,0.2179,0.401,0.131,0.4945,2.8647,0
2003/2/1 22:45,11.2108,0,0,0.2118,0.399,0.1305,0.4303,2.8437,0
2003/2/1 23:00,11.2342,0,0,0.2163,0.2151,0.1308,0.4882,2.8344,0
2003/2/1 23:15,11.3223,0,0,0.2163,0.3285,0.1318,0.4576,2.841,0
2003/2/1 23:30,11.361,0,0,0.2193,0.3912,0.336,0.5239,1.6885,0
2003/2/1 23:45,11.4968,0,0,0.22,0.3943,0.5148,0.4933,0.7168,0
2003/2/2 0:00,11.4313,0,0,0.2233,0.3948,0.4873,0.5252,0.663,0
2003/2/2 0:15,11.4844,0,0,0.2186,0.3953,0.4434,0.4847,0.8238,0
2003/2/2 0:30,11.4162,0,0,0.2304,0.1103,0.1309,0.4764,0.7518,0
2003/2/2 0:45,11.4741,0,0,2.1882,0.3912,0.1325,0.24,0.4713,0
2003/2/2 1:00,11.6002,0,0,0.1598,0.3897,0.1332,0.1454,0.2173,0
2003/2/2 1:15,11.3496,0,0,0.3398,0.3866,0.1302,0.1963,0.0876,0
2003/2/2 1:30,11.309,0,0,0.3033,0.3645,0.1297,0.1473,0.1567,0
2003/2/2 1:45,11.3918,0,0,0.1848,0.1276,0.1306,0.1918,0.2585,0
2003/2/2 2:00,11.3528,0,0,0.2483,0.3848,0.1306,0.1475,0.2684,0
2003/2/2 2:15,11.4621,0,0,0.2532,0.3852,0.1316,0.1997,0.2588,0
2003/2/2 2:30,11.3901,0,0,0.2478,0.3865,0.131,0.1464,0.2701,0
2003/2/2 2:45,11.4643,0,0,0.2604,0.09,0.1316,0.1953,0.2452,0
2003/2/2 3:00,11.379,0,0,0.252,0.3957,0.1305,0.1505,0.2735,0
2003/2/2 3:15,11.3332,0,0,0.2555,0.3806,0.1297,0.193,0.2585,0
2003/2/2 3:30,11.3678,0,0,0.2585,0.3833,0.1305,0.1477,0.2769,0
2003/2/2 3:45,11.3923,0,0,0.2599,0.3835,0.1306,0.1892,0.2507,0
2003/2/2 4:00,11.3253,0,0,0.256,0.0919,0.1297,0.0854,0.3391,0
2003/2/2 4:15,11.3256,0,0,0.2566,0.3794,0.1297,0.1408,0.255,0
2003/2/2 4:30,11.3158,0,0,0.2583,0.3792,0.1297,0.0858,0.2926,0
2003/2/2 4:45,11.3059,0,0,0.2615,0.3793,0.1296,0.0863,0.2824,0
2003/2/2 5:00,11.2876,0,0,0.2614,0.1356,0.1295,0.1391,0.3005,0
2003/2/2 5:15,11.2908,0,0,0.2568,0.3423,0.13,0.0858,0.2964,0
2003/2/2 5:30,11.2624,0,0,0.2595,0.3764,0.1297,0.1388,0.2988,0
2003/2/2 5:45,11.218,0,0,0.2569,0.3776,0.1292,0.0857,0.2915,0
2003/2/2 6:00,7.1204,0,0,0.2619,0.384,0.1332,0.1398,0.3149,0
2003/2/2 6:15,1.5022,0,0,0.2542,0.0854,0.1361,0.107,0.2784,0
2003/2/2 6:30,10.4157,0,0,0.2578,0.3826,0.1322,0.1454,0.2627,0
2003/2/2 6:45,11.2103,0,0,0.2578,0.3761,0.1292,0.103,0.2874,0
2003/2/2 7:00,10.7653,0,0,0.2409,0.3793,0.148,0.1453,0.32,0
2003/2/2 7:15,1.475,0,0,0.1729,0.1149,0.1328,0.1011,0.3145,0
2003/2/2 7:30,4.1033,0,0,0.1719,0.3542,0.1316,0.1872,0.3599,0
2003/2/2 7:45,11.209,0,0,0.2016,0.3751,0.1286,0.8582,3.565,0
2003/2/2 8:00,4.4519,0,0,0.2203,0.3802,0.0429,0.6947,3.5916,0
2003/2/2 8:15,0,0,0,0.2209,0.4468,0.0435,0.6892,3.5604,0
2003/2/2 8:30,0,0,0,0.2223,0.5977,0.0433,0.451,3.5186,0
2003/2/2 8:45,0,0,0,0.2203,0.3678,0.0432,0.1004,3.5004,0
2003/2/2 9:00,0,0,0,0.2271,0.3767,0.0431,0.1502,3.4969,0
2003/2/2 9:15,0,0,0,0.2256,0.3856,0.0436,0.1015,3.487,0
2003/2/2 9:30,0,0,0,0.2259,0.3894,0.0433,0.1526,3.5031,0
2003/2/2 9:45,0,0,0,0.2187,0.3904,0.0432,0.0959,3.4832,0
2003/2/2 10:00,0,0,0,0.2311,0.3928,0.0433,0.1416,3.5135,0
2003/2/2 10:15,0,0,0,1.0253,0.4003,0.0533,0.1034,0.723,0
2003/2/2 10:30,0,0,0,0.6667,0.399,0.1997,0.1529,3.2445,0
2003/2/2 10:45,0,0,0,0.2259,0.3986,0.194,0.0994,4.1535,0
2003/2/2 11:00,0,0,0,0.2483,0.3987,0.1921,0.145,4.118,0
2003/2/2 11:15,0,0,0,0.2837,0.3996,0.192,0.1005,4.2117,0
2003/2/2 11:30,0,0,0,0.1454,0.2229,0.1868,0.1447,5.8052,0
2003/2/2 11:45,0,0,0,0.4962,0.294,0.1837,0.0975,4.6575,0
2003/2/2 12:00,0,0,0,0.1452,0.3865,0.1941,0.1482,3.9864,0
2003/2/2 12:15,0,0,0,0.1459,0.3879,0.5207,0.0971,2.4058,0
2003/2/2 12:30,0,0,0,0.147,0.3912,0.5795,0.1329,0.9144,0
2003/2/2 12:45,0,0,0,0.1488,0.3927,0.5885,0.1093,0.8294,0
2003/2/2 13:00,0,0,0,0.1428,0.3908,0.564,0.0937,0.7484,0
2003/2/2 13:15,0,0,0,0.1485,0.392,0.5619,0.1446,0.669,0
2003/2/2 13:30,0,0,0,0.5744,0.3927,0.5525,0.0963,0.7705,0
2003/2/2 13:45,0,0,0,0.1449,0.3936,0.5558,0.1405,2.7995,0
2003/2/2 14:00,0,0,0,0.1489,0.3937,0.3921,0.0943,2.771,0
2003/2/2 14:15,0,0,0,0.1449,0.3943,0.112,0.1475,2.7708,0
2003/2/2 14:30,0,0,0,0.1456,0.3934,0.1397,0.1492,2.8983,0
2003/2/2 14:45,0,0,0,0.1469,0.3947,0.1403,0.1518,2.9951,0
2003/2/2 15:00,0,0,0,0.1488,0.3938,0.1385,0.0998,3.3299,0
2003/2/2 15:15,0,0,0,0.1433,0.3934,0.1387,0.1463,3.9516,0
2003/2/2 15:30,0,0,0,0.1479,0.393,0.1385,0.095,3.8964,0
2003/2/2 15:45,0,0,0,0.1427,0.3933,0.1381,0.9206,3.9002,0
2003/2/2 16:00,0,0,0,0.1469,0.3564,0.1365,0.8552,3.8965,0
2003/2/2 16:15,0,0,0,0.4451,0.1742,0.1372,0.4746,3.9843,0
2003/2/2 16:30,0,0,0,0.394,0.384,0.1165,0.0963,4.0444,0
2003/2/2 16:45,0,0,0,3.6225,0.3861,0.0429,0.1462,4.1806,0
2003/2/2 17:00,0,0,0,2.4893,0.3864,0.0423,0.096,4.1328,0
2003/2/2 17:15,0,0,0,0.6572,0.3894,0.0429,0.1431,5.073,0
2003/2/2 17:30,0,0,0,3.3391,0.391,0.0425,0.0969,4.6215,0
2003/2/2 17:45,0,0,0,2.0209,0.2586,0.0432,0.1498,5.2681,0
2003/2/2 18:00,0,0,0,0.1447,0.2419,0.3031,0.3453,8.9944,0
2003/2/2 18:15,0,0,0,0.1388,0.3872,0.3996,0.6382,7.0654,0
2003/2/2 18:30,0,0,0,0.1454,0.3884,0.257,0.6772,6.8151,0
2003/2/2 18:45,0,0,0,0.1456,0.39,0.1109,0.5848,6.6963,0
2003/2/2 19:00,0,0,0,0.1467,0.3901,0.1086,0.6081,6.6858,0
2003/2/2 19:15,0,0,0,0.1408,0.3931,0.1106,0.5604,5.1984,0
2003/2/2 19:30,0,0,0,0.1403,0.0874,0.2385,0.5397,4.3285,0
2003/2/2 19:45,0,0,0,0.1467,0.3963,0.258,0.4257,1.7551,0
2003/2/2 20:00,0,0,0,0.1444,0.3911,0.1104,0.4831,1.7601,0
2003/2/2 20:15,0,0,0,0.1443,0.3923,0.1104,0.438,2.7351,0
2003/2/2 20:30,0,0,0,0.143,0.2563,0.1099,0.4728,2.4337,0
2003/2/2 20:45,0,0,0,0.1416,0.2186,0.0916,0.449,1.5974,0
2003/2/2 21:00,0,0,0,0.141,0.3852,0.0871,0.6686,1.9333,0
2003/2/2 21:15,0,0,0,0.1395,0.3874,0.0873,0.5793,1.6088,0
2003/2/2 21:30,0,0,0,0.1418,0.1617,0.1093,0.3626,1.1076,0
2003/2/2 21:45,0,0,0,0.1443,0.3154,0.2208,0.2002,1.0849,0
2003/2/2 22:00,6.7556,0,0,1.7839,0.3828,0.2092,0.1591,1.2194,0
2003/2/2 22:15,11.2172,0,0,0.4366,0.3851,0.1938,0.1994,1.0502,0
2003/2/2 22:30,11.2139,0,0,0.054,0.3794,0.0419,0.1548,1.0722,0
2003/2/2 22:45,11.4234,0,0,0.1048,0.0894,0.2498,0.2059,1.2738,0
2003/2/2 23:00,11.3504,0,0,0.1374,0.3853,0.4601,0.1594,0.813,0
2003/2/2 23:15,11.103,0,0,0.1512,0.3806,0.4356,0.2438,1.4367,0
2003/2/2 23:30,11.196,0,0,0.149,0.3829,0.4182,0.437,1.8989,0
2003/2/2 23:45,11.3956,0,0,0.1477,0.1212,0.4104,0.5352,1.2004,0
2003/2/3 0:00,11.4754,0,0,0.1538,0.3632,0.3545,0.2699,1.0323,0
2003/2/3 0:15,11.554,0,0,0.1477,0.3875,0.0431,0.1934,0.3524,0
2003/2/3 0:30,11.5616,0,0,0.1524,0.3892,0.0431,0.1704,0.2409,0
2003/2/3 0:45,11.3325,0,0,0.1496,0.3869,0.0423,0.1765,0.2722,0
2003/2/3 1:00,11.303,0,0,0.1473,0.4948,0.042,0.1963,0.2537,0
2003/2/3 1:15,11.3815,0,0,0.1476,0.5596,0.0426,0.1522,0.2566,0
2003/2/3 1:30,11.4579,0,0,0.1508,0.3358,0.0428,0.1947,0.25,0
2003/2/3 1:45,11.4673,0,0,0.1524,0.3853,0.0429,0.1544,0.2468,0
2003/2/3 2:00,11.5003,0,0,0.15,0.3902,0.0428,0.1515,0.25,0
2003/2/3 2:15,11.5292,0,0,0.1472,0.394,0.0431,0.2,0.2604,0
2003/2/3 2:30,11.5792,0,0,0.1521,0.3957,0.0431,0.149,0.258,0
2003/2/3 2:45,11.5037,0,0,0.1482,0.3961,0.0429,0.1974,0.2726,0
2003/2/3 3:00,11.3845,0,0,0.15,0.3948,0.0423,0.1535,0.2595,0
2003/2/3 3:15,11.3312,0,0,0.1473,0.3944,0.0423,0.2043,0.2468,0
2003/2/3 3:30,11.3822,0,0,0.1513,0.395,0.0425,0.1529,0.2674,0
2003/2/3 3:45,11.4114,0,0,0.15,0.3959,0.0426,0.18,0.2455,0
2003/2/3 4:00,11.4346,0,0,0.1499,0.1015,0.0428,0.095,0.219,0
2003/2/3 4:15,11.4013,0,0,0.1462,0.3875,0.0425,0.1407,0.2304,0
2003/2/3 4:30,11.3541,0,0,0.1521,0.3832,0.0423,0.0939,0.2713,0
2003/2/3 4:45,11.3593,0,0,0.1513,0.3851,0.0426,0.1395,0.267,0
2003/2/3 5:00,11.2383,0,0,0.1472,0.3836,0.0425,0.092,3.4358,0
2003/2/3 5:15,11.1859,0,0,0.1509,0.0845,0.0422,0.1441,3.3562,0
2003/2/3 5:30,11.1659,0,0,0.1508,0.3836,0.0422,0.0953,3.3879,0
2003/2/3 5:45,11.3522,0,0,0.5198,0.3826,0.0431,0.1437,3.4754,0
2003/2/3 6:00,11.3924,0,0,1.2195,0.3835,0.0432,0.0945,3.4429,0
2003/2/3 6:15,11.2559,0,0,0.8823,0.1207,0.0426,0.165,2.9619,0
2003/2/3 6:30,11.0799,0,0,0.3515,0.3432,0.042,0.1077,3.3936,0
2003/2/3 6:45,8.0411,0,0,0.3056,0.3822,0.3478,0.1538,4.0232,0
2003/2/3 7:00,1.457,0,0,2.1316,0.3828,0.427,0.1081,4.1923,0
2003/2/3 7:15,8.9084,0,0,2.3472,0.3839,0.4147,0.1106,4.3271,0
2003/2/3 7:30,11.2078,0,0,0.955,0.3848,0.4245,0.1551,4.2201,0
2003/2/3 7:45,10.5464,0,0,0.3969,0.3876,0.4206,0.1087,4.5927,0
2003/2/3 8:00,0.5917,0,0,0.3567,0.3904,0.4235,0.1964,4.2467,0
2003/2/3 8:15,0,0,0,0.2674,0.3917,0.4202,0.1695,4.1969,0
2003/2/3 8:30,0,0,0,0.2573,0.236,0.4632,0.2547,3.6052,0
2003/2/3 8:45,0,0,0,0.2624,0.2735,0.4572,0.3557,1.0368,0
2003/2/3 9:00,0,0,0,0.2532,0.3817,0.3853,0.3619,1.0912,0
2003/2/3 9:15,0,0,0,0.2598,0.384,0.4854,0.45,1.0189,0
2003/2/3 9:30,0,0,0,0.2618,0.3871,0.3165,0.3397,0.6947,0
2003/2/3 9:45,0,0,0,0.255,0.1109,0.088,0.1094,0.3266,0
2003/2/3 10:00,0,0,0,0.2588,0.4015,0.0878,0.1564,0.3296,0
2003/2/3 10:15,0,0,0,0.2583,0.3872,0.0878,0.2193,0.3711,0
2003/2/3 10:30,0,0,0,0.221,0.3907,0.087,0.1061,0.2552,0
2003/2/3 10:45,0,0,0,0.1706,0.3141,0.087,0.1426,0.3001,0
2003/2/3 11:00,0,0,0,0.1848,0.1999,0.0873,0.1492,0.3455,0
2003/2/3 11:15,0,0,0,0.217,0.3876,0.0871,0.1018,0.3423,0
2003/2/3 11:30,0,0,0,0.2219,0.3884,0.0871,0.1475,0.3633,0
2003/2/3 11:45,0,0,0,0.2255,0.3904,0.0873,0.1008,0.3463,0
2003/2/3 12:00,0,0,0,0.2265,0.1166,0.0871,0.14,0.724,0
2003/2/3 12:15,0,0,0,0.2225,0.3969,0.087,0.0953,1.6875,0
2003/2/3 12:30,0,0,0,0.2235,0.3875,0.0868,0.1394,0.9422,0
2003/2/3 12:45,0,0,0,0.6623,0.3897,0.2884,0.0936,0.3456,0
2003/2/3 13:00,0,0,0,0.2281,0.3918,0.3681,0.1365,0.4425,0
2003/2/3 13:15,0,0,0,0.2111,0.2197,0.0929,0.09,0.7944,0
2003/2/3 13:30,0,0,0,0.219,0.2874,0.0431,0.1378,1.1673,0
2003/2/3 13:45,0,0,0,0.2232,0.3895,0.0429,0.0899,0.6395,0
2003/2/3 14:00,0,0,0,0.2274,0.392,0.0431,0.1329,0.3528,0
2003/2/3 14:15,0,0,0,0.2125,0.164,0.0433,0.0896,0.5648,0
2003/2/3 14:30,0,0,0,0.2176,0.3512,0.0435,0.1368,0.5659,0
2003/2/3 14:45,0,0,0,0.2176,0.3934,0.0432,0.0863,0.3226,0
2003/2/3 15:00,0,0,0,0.2127,0.3963,0.0433,0.1371,0.3218,0
2003/2/3 15:15,0,0,0,0.2146,0.1176,0.0432,0.0868,0.5448,0
2003/2/3 15:30,0,0,0,0.2144,0.3934,0.0432,0.1319,0.4902,0
2003/2/3 15:45,0,0,0,0.2144,0.3944,0.0429,0.0865,0.6114,0
2003/2/3 16:00,0,0,0,0.2101,0.2229,0.0429,0.1365,0.8202,0
2003/2/3 16:15,0,0,0,0.2124,0.2919,0.0425,0.0857,1.0169,0
2003/2/3 16:30,0,0,0,0.3036,0.3884,0.0422,0.1283,0.8819,0
2003/2/3 16:45,0,0,0,0.4146,0.3928,0.0428,0.0844,0.4268,0
2003/2/3 17:00,0,0,0,0.236,0.1217,0.0425,0.1345,1.2286,0
2003/2/3 17:15,0,0,0,0.1979,0.3874,0.0422,0.0847,2.1469,0
2003/2/3 17:30,0,0,0,0.2344,0.3868,0.042,0.1331,2.2609,0
2003/2/3 17:45,0,0,0,0.2432,0.121,0.0418,0.0864,2.3085,0
2003/2/3 18:00,0,0,0,0.2472,0.3878,0.042,0.1375,2.2994,0
2003/2/3 18:15,0,0,0,1.57,0.3898,0.0426,0.0844,2.3485,0
2003/2/3 18:30,0,0,0,1.856,0.4545,0.0425,0.0842,2.3083,0
2003/2/3 18:45,0,0,0,0.176,0.5875,0.0426,0.1323,1.5368,0
2003/2/3 19:00,0,0,0,0.1439,0.3384,0.0598,0.0848,1.2298,0
2003/2/3 19:15,0,0,0,0.1457,0.3858,0.0425,0.1325,1.2234,0
2003/2/3 19:30,0,0,0,0.9988,0.3925,0.0423,0.0851,1.3018,0
2003/2/3 19:45,0,0,0,0.1385,0.3974,0.0425,0.4343,2.2229,0
2003/2/3 20:00,0,0,0,0.1443,0.3989,0.0425,0.8777,2.9265,0
2003/2/3 20:15,0,0,0,0.5741,0.4012,0.0425,0.5977,2.7775,0
2003/2/3 20:30,0,0,0,0.1479,0.4022,0.0425,0.6453,2.9768,0
2003/2/3 20:45,0,0,0,0.1372,0.4045,0.0426,0.3655,3.0339,0
2003/2/3 21:00,0,0,0,0.1464,0.4051,0.0428,0.1365,2.0267,0
2003/2/3 21:15,0,0,0,0.1421,0.2046,0.0426,0.0874,1.1061,0
2003/2/3 21:30,0,0,0,0.147,0.3228,0.0425,0.1394,1.6145,0
2003/2/3 21:45,0,0,0,0.142,0.3921,0.0428,0.0897,1.2424,0
2003/2/3 22:00,6.7369,0,0,0.6941,0.3918,0.0428,0.1356,1.5348,0
2003/2/3 22:15,11.2013,0,0,0.1446,0.3915,0.0422,0.0896,2.1637,0
2003/2/3 22:30,11.0805,0,0,0.1431,0.1295,0.042,0.1369,4.6341,0
2003/2/3 22:45,11.0313,0,0,0.1462,0.3748,0.1369,0.103,4.6728,0
2003/2/3 23:00,11.0933,0,0,0.1467,0.3839,0.3999,0.2017,4.2905,0
2003/2/3 23:15,11.0475,0,0,0.1443,0.3858,0.4111,0.1485,4.3501,0
2003/2/3 23:30,11.3617,0,0,0.1434,0.3928,0.4039,0.1513,4.5593,0
2003/2/3 23:45,11.2389,0,0,0.4422,0.1188,0.4075,0.1967,4.303,0
2003/2/4 0:00,11.3397,0,0,0.2978,0.3892,0.0917,0.15,4.242,0
2003/2/4 0:15,11.3685,0,0,0.1477,0.3885,0.0428,0.1817,4.2252,0
2003/2/4 0:30,11.5165,0,0,0.1479,0.3936,0.0433,0.1392,1.9237,0
2003/2/4 0:45,11.2717,0,0,0.1439,0.3912,0.0422,0.1865,0.3325,0
2003/2/4 1:00,11.2951,0,0,0.1479,0.2161,0.0423,0.1427,0.3295,0
2003/2/4 1:15,11.4288,0,0,0.1467,0.2981,0.0426,0.1954,0.3357,0
2003/2/4 1:30,11.3809,0,0,0.1459,0.3868,0.0426,0.146,0.3272,0
2003/2/4 1:45,11.4687,0,0,0.1518,0.3892,0.0429,0.1987,0.3269,0
2003/2/4 2:00,11.5105,0,0,0.1447,0.3243,0.0429,0.1475,0.3355,0
2003/2/4 2:15,11.4589,0,0,0.1532,0.1878,0.0426,0.1911,0.4033,0
2003/2/4 2:30,11.5055,0,0,0.1449,0.3876,0.0431,0.145,0.345,0
2003/2/4 2:45,11.5586,0,0,0.1508,0.3888,0.0432,0.1954,0.3374,0
2003/2/4 3:00,11.5138,0,0,0.1453,0.3897,0.0431,0.1473,0.3377,0
2003/2/4 3:15,11.4728,0,0,0.1459,0.1156,0.0428,0.1931,0.3306,0
2003/2/4 3:30,11.4385,0,0,0.1512,0.3861,0.0428,0.1457,0.3385,0
2003/2/4 3:45,11.4817,0,0,0.1512,0.3858,0.0429,0.1958,0.36,0
2003/2/4 4:00,11.4883,0,0,0.1475,0.3875,0.0431,0.1495,0.3439,0
2003/2/4 4:15,11.4873,0,0,0.145,0.1227,0.0429,0.1961,0.3338,0
2003/2/4 4:30,11.4489,0,0,0.1511,0.3745,0.0428,0.1467,0.3349,0
2003/2/4 4:45,11.4096,0,0,0.1473,0.3828,0.0428,0.1973,1.4419,0
2003/2/4 5:00,11.2661,0,0,0.1506,0.3823,0.0428,0.1485,3.5155,0
2003/2/4 5:15,11.1846,0,0,0.1424,0.1822,0.0423,0.1917,3.4439,0
2003/2/4 5:30,11.0982,0,0,0.1477,0.3056,0.042,0.1878,3.4223,0
2003/2/4 5:45,11.3304,0,0,0.4825,0.3804,0.0431,0.1372,3.4887,0
2003/2/4 6:00,11.3122,0,0,1.3078,0.2717,0.0431,0.0894,3.5624,0
2003/2/4 6:15,11.0919,0,0,0.7799,0.2313,0.0423,0.1572,3.3899,0
2003/2/4 6:30,11.3972,0,0,0.3516,0.3822,0.0433,0.1018,3.48,0
2003/2/4 6:45,11.3147,0,0,0.303,0.3825,0.0431,0.1441,3.4802,0
2003/2/4 7:00,11.2336,0,0,1.6557,0.3194,0.3483,0.1558,4.0022,0
2003/2/4 7:15,11.1351,0,0,2.4872,0.1737,0.4058,0.1225,4.1459,0
2003/2/4 7:30,11.2025,0,0,2.0104,0.3816,0.419,0.7223,4.16,0
2003/2/4 7:45,11.3226,0,0,0.6182,0.3839,0.4169,0.8496,1.6927,0
2003/2/4 8:00,4.4132,0,0,0.9346,0.3828,0.401,0.518,4.4558,0
2003/2/4 8:15,0,0,0,0.4085,0.2425,0.3763,0.6039,4.322,0
2003/2/4 8:30,0,0,0,0.2256,0.2762,0.4026,0.2864,4.2497,0
2003/2/4 8:45,0,0,0,0.2151,0.3833,0.4199,0.1014,4.2097,0
2003/2/4 9:00,0,0,0,0.2298,0.3849,0.2549,0.1496,4.0072,0
2003/2/4 9:15,0,0,0,0.2187,0.3872,0.0435,0.1264,3.3579,0
2003/2/4 9:30,0,0,0,0.2303,0.1156,0.0432,0.1284,0.5653,0
2003/2/4 9:45,0,0,0,0.2272,0.3879,0.0433,0.1572,0.895,0
2003/2/4 10:00,0,0,0,0.23,0.3826,0.0432,0.1045,0.8777,0
2003/2/4 10:15,0,0,0,0.2254,0.3852,0.0432,0.1572,1.0381,0
2003/2/4 10:30,0,0,0,0.2334,0.2907,0.0433,0.1034,1.0192,0
2003/2/4 10:45,0,0,0,0.2225,0.2049,0.0433,0.113,0.8224,0
2003/2/4 11:00,0,0,0,0.2271,0.3803,0.0426,0.1441,0.578,0
2003/2/4 11:15,0,0,0,0.2244,0.3812,0.0425,0.1032,0.5848,0
2003/2/4 11:30,0,0,0,0.2233,0.3845,0.0431,0.1452,0.5996,0
2003/2/4 11:45,0,0,0,0.2292,0.4861,0.0426,0.1018,0.7276,0
2003/2/4 12:00,0,0,0,0.2294,0.5885,0.0516,0.1531,0.6565,0
2003/2/4 12:15,0,0,0,0.2222,0.3158,0.0429,0.1022,0.6394,0
2003/2/4 12:30,0,0,0,0.3424,0.3802,0.0684,0.1524,0.6375,0
2003/2/4 12:45,0,0,0,1.7166,0.3842,0.3662,0.2379,3.8457,0
2003/2/4 13:00,0,0,0,0.2251,0.3859,0.3973,0.377,3.6685,0
2003/2/4 13:15,0,0,0,0.2271,0.3888,0.4303,0.1983,3.1033,0
2003/2/4 13:30,0,0,0,0.2902,0.3948,0.419,0.1524,2.0579,0
2003/2/4 13:45,0,0,0,0.4272,0.398,0.0429,0.0992,0.087,0
2003/2/4 14:00,0,0,0,0.1895,0.3997,0.0432,0.1502,0.2644,0
2003/2/4 14:15,0,0,0,0.2425,0.4005,0.0431,0.1012,0.4298,0
2003/2/4 14:30,0,0,0,0.2475,0.1349,0.0426,0.1441,0.3574,0
2003/2/4 14:45,0,0,0,0.2536,0.3887,0.0426,0.0982,0.3106,0
2003/2/4 15:00,0,0,0,0.253,0.3891,0.0426,0.1945,0.4226,0
2003/2/4 15:15,0,0,0,0.2527,0.3895,0.0423,0.1477,0.5443,0
2003/2/4 15:30,0,0,0,0.254,0.2465,0.3966,0.2856,0.5544,0
2003/2/4 15:45,0,0,0,0.25,0.2709,0.4548,0.449,0.5701,0
2003/2/4 16:00,0,0,0,0.5335,0.3856,0.4702,0.4166,1.2108,0
2003/2/4 16:15,0,0,0,0.2508,0.3889,0.483,0.4814,3.3686,0
2003/2/4 16:30,0,0,0,0.2493,0.1382,0.1884,0.436,3.7871,0
2003/2/4 16:45,0,0,0,0.2496,0.3865,0.0428,0.5226,3.7505,0
2003/2/4 17:00,0,0,0,0.2533,0.3852,0.0425,0.4611,3.5398,0
2003/2/4 17:15,0,0,0,0.2519,0.3855,0.0422,0.4978,3.435,0
2003/2/4 17:30,0,0,0,0.2467,0.156,0.0425,0.448,3.5355,0
2003/2/4 17:45,0,0,0,0.2534,0.3498,0.0423,0.491,3.4707,0
2003/2/4 18:00,0,0,0,0.2668,0.3833,0.0423,0.4261,3.4461,0
2003/2/4 18:15,0,0,0,3.4302,0.2644,0.0425,0.4448,3.508,0
2003/2/4 18:30,0,0,0,1.6764,0.2493,0.0429,0.5204,3.5448,0
2003/2/4 18:45,2.9575,0,0,1.3971,0.3829,0.1295,0.3555,4.3872,0
2003/2/4 19:00,4.5606,0,0,3.228,0.3832,0.4219,0.1511,4.48,0
2003/2/4 19:15,0.2049,0,0,0.2507,0.3888,0.4169,0.5083,3.6531,0
2003/2/4 19:30,0.0006,0,0,1.4509,0.2638,0.1384,0.5093,4.3963,0
2003/2/4 19:45,0,0,0,0.1454,0.2932,0.0428,0.4212,4.516,0
2003/2/4 20:00,0,0,0,0.1407,0.3871,0.0431,0.3812,4.4819,0
2003/2/4 20:15,0,0,0,0.1457,0.3815,0.0431,0.3786,5.1624,0
2003/2/4 20:30,0,0,0,0.144,0.14,0.0431,0.5158,5.3143,0
2003/2/4 20:45,0,0,0,0.1417,0.3891,0.0435,0.3905,4.446,0
2003/2/4 21:00,0,0,0,0.1398,0.3911,0.0431,0.1405,1.084,0
2003/2/4 21:15,0,0,0,0.1431,0.1601,0.0432,0.0956,0.9806,0
2003/2/4 21:30,0,0,0,0.1417,0.3689,0.0431,0.1499,1.6677,0
2003/2/4 21:45,0,0,0,0.1404,0.3868,0.0429,0.0929,3.5338,0
2003/2/4 22:00,6.7419,0,0,1.6464,0.2697,0.0428,0.1513,2.0838,0
2003/2/4 22:15,11.2624,0,0,1.2817,0.249,0.0428,0.0994,1.1563,0
2003/2/4 22:30,11.175,0,0,0.0389,0.3825,0.0423,0.1482,2.3399,0
2003/2/4 22:45,10.9765,0,0,0.634,0.381,0.3836,0.0979,3.5044,0
2003/2/4 23:00,11.1249,0,0,0.1224,0.1361,0.4044,0.1207,1.3586,0
2003/2/4 23:15,11.2395,0,0,0.1416,0.3859,0.3948,0.4031,1.6199,0
2003/2/4 23:30,11.4738,0,0,0.147,0.3885,0.4108,0.4167,1.6609,0
2003/2/4 23:45,11.3116,0,0,0.146,0.3876,0.4199,0.5131,1.4822,0
2003/2/5 0:00,11.3296,0,0,0.1499,0.23,0.4101,0.4846,1.2432,0
2003/2/5 0:15,11.4335,0,0,0.1488,0.2817,0.3004,0.4297,1.7686,0
2003/2/5 0:30,11.4677,0,0,0.1464,0.3869,0.0431,0.1476,0.2732,0
2003/2/5 0:45,11.4902,0,0,0.1486,0.3698,0.0431,0.1997,0.2648,0
2003/2/5 1:00,11.2478,0,0,0.1464,0.1522,0.0422,0.1464,0.234,0
2003/2/5 1:15,11.3031,0,0,0.1463,0.3833,0.0425,0.1986,0.2464,0
2003/2/5 1:30,11.427,0,0,0.1485,0.3861,0.0431,0.1493,0.2481,0
2003/2/5 1:45,11.4424,0,0,0.149,0.1476,0.0428,0.2,0.2606,0
2003/2/5 2:00,11.4823,0,0,0.1469,0.3675,0.0431,0.1473,0.2575,0
2003/2/5 2:15,11.5416,0,0,0.1464,0.3862,0.0432,0.1986,0.2686,0